[[{"header":{"parameterUnit":"m.s-1","parameterCategory":1,"la1":30.2991,"la2":30.254,"lo1":-89.0895,"lo2":-89.0444,"dy":0.0017,"dx":0.0017,"nx":28,"ny":28,"refTime":"2025-06-17T21:00:00:Z","depth":0,"parameterNumber":2,"parameterNumberName":"U-component_of_WINDS"},"data":[0,0,0,0,0,0,0,0,0,0,0,0,0,0,0,0,0,0,0,0,0,0,0,0,0,0,0,0,0,0,0,0,0,0,0,0,0,0,0,0,0,0,0,0,0,0,0,0,0,0,0,0,0,0,0,0,0,0,1.1079,1.1078,0,1.1022,1.1021,1.102,1.092,1.0918,1.0916,1.0914,1.0857,1.0857,1.0857,0,0,0,0,0,0,0,0,0,0,0,0,0,1.1099,1.1099,1.1079,1.1078,1.1077,1.1022,1.1021,1.102,1.092,1.0918,1.0915,1.0913,1.0857,1.0857,1.0857,0,0,0,0,0,0,0,0,0,0,0,0,0,1.1071,1.1099,1.1079,1.1021,1.1015,1.1022,1.1021,1.102,1.092,1.0917,1.0915,1.0912,1.0857,1.0857,1.0857,1.0917,0,0,1.0859,1.0859,0,0,0,0,0,0,0,0,1.1073,1.107,1.103,1.1025,1.1018,1.0975,1.1007,1.0986,1.0921,1.0956,1.0914,1.0911,1.0898,1.0895,1.0891,1.0915,1.0912,1.0859,1.0859,1.0859,1.0859,0,0,0,0,0,0,0,1.1075,1.1072,1.1056,1.1029,1.1022,1.0997,1.0989,1.1003,1.0944,1.0953,1.0946,1.094,1.0895,1.0891,1.0889,1.0911,1.0859,1.0859,1.0859,1.0859,1.0976,1.0979,0,0,0,0,0,0,1.1085,1.1075,1.1058,1.1055,1.1039,1.0999,1.0991,1.0992,1.0944,1.0934,1.0943,1.0936,1.0891,1.0888,1.0886,1.095,1.0859,1.0859,1.086,1.0974,1.0977,1.098,0,0,0,0,0,0,1.1086,1.1085,1.106,1.1062,1.1057,1.1001,1.1003,1.0992,1.0988,1.0936,1.0925,1.0949,1.0889,1.0886,1.0909,1.0947,1.086,1.086,1.097,1.0975,1.0979,1.1081,0,0,0,0,0,0,1.1087,1.1086,1.1109,1.1064,1.1058,1.1085,1.1006,1.0993,1.0989,1.0979,1.0939,1.093,1.0887,1.0909,1.091,1.0946,1.086,1.0967,1.0972,1.0977,1.1074,1.1088,1.11,0,0,0,0,0,1.1088,1.1141,1.1111,1.1109,1.1085,1.1088,1.1084,1.1033,1.0992,1.1014,1.098,1.0931,1.0943,1.0912,1.0912,1.0949,1.0964,1.0971,1.0977,1.1068,1.1085,1.11,0,0,0,0,0,0,1.1194,1.1134,1.11,1.114,1.1119,1.1071,1.1097,1.1053,1.1045,1.1036,1.0973,1.0964,1.0995,1.0975,1.0942,1.1002,1.0945,1.0952,1.1015,1.1031,1.1044,1.1048,1.0861,0,0,0,0,0,1.1221,1.1228,1.1176,1.1216,1.1207,1.1154,1.1153,1.1115,1.1092,1.1083,1.105,1.103,1.1027,1.1028,1.1024,1.107,1.1058,1.1095,1.1108,1.1119,1.1126,1.1144,1.1159,1.1001,1.1001,1.1001,0,0,1.1279,1.1247,1.1256,1.1236,1.1216,1.1223,1.1148,1.116,1.1164,1.1085,1.1104,1.1079,1.1051,1.1085,1.1099,1.1069,1.1166,1.1128,1.1137,1.1137,1.1152,1.1167,1.1181,1.1006,1.1005,1.1004,0,0,1.1387,1.1365,1.1394,1.1374,1.1344,1.1307,1.1314,1.1271,1.1251,1.1269,1.1208,1.1213,1.1212,1.1194,1.1184,1.1281,1.1235,1.1282,1.1351,1.137,1.1382,1.1393,1.1424,1.1437,1.1288,1.1289,1.1289,0,1.1462,1.1471,1.1415,1.1429,1.1421,1.1348,1.1375,1.1359,1.133,1.1325,1.1292,1.1287,1.1264,1.129,1.1313,1.1309,1.1313,1.1286,1.1385,1.1395,1.1404,1.1434,1.1446,1.1294,1.1294,1.1293,1.1293,0,1.1564,1.1571,1.1598,1.1569,1.1564,1.1586,1.1531,1.1532,1.1494,1.146,1.1478,1.1446,1.1433,1.1436,1.14,1.1457,1.1439,1.1397,1.1338,1.1426,1.1452,1.1463,1.1302,1.13,1.1299,1.1297,0,0,1.1738,1.1675,1.1686,1.167,1.1629,1.1633,1.165,1.1635,1.1637,1.1618,1.1629,1.1628,1.1587,1.1577,1.1537,1.1554,1.1629,1.1509,1.1507,1.153,1.1686,1.1716,1.1731,1.1598,1.16,1.1602,1.1687,0,1.1836,1.1861,1.1809,1.1846,1.185,1.1778,1.1792,1.1768,1.1737,1.1735,1.17,1.1699,1.1647,1.1639,1.1653,1.1617,1.1659,1.161,1.1606,1.1606,1.1613,1.1745,1.1778,1.1861,1.1697,1.1699,1.17,0,1.1954,1.1939,1.1976,1.1929,1.1929,1.1943,1.1923,1.1923,1.1893,1.1868,1.1855,1.1807,1.1819,1.1763,1.1776,1.1744,1.1739,1.1721,1.1722,1.1719,1.1658,1.1743,1.1886,1.1898,1.1717,1.1715,1.1714,0,1.2074,1.2063,1.2083,1.2072,1.2019,1.2029,1.2008,1.1975,1.1968,1.1951,1.1946,1.1931,1.1922,1.1911,1.186,1.1825,1.1878,1.1819,1.1857,1.1858,1.1871,1.187,1.2013,1.1871,1.1871,1.187,1.187,0,1.2188,1.2213,1.2135,1.2147,1.2172,1.2111,1.2137,1.2108,1.2079,1.2083,1.2021,1.2026,1.1958,1.1956,1.1916,1.1931,1.1928,1.1907,1.1896,1.1912,1.1914,1.1907,1.1899,1.1874,1.1873,1.1872,1.1872,0,1.2326,1.2275,1.2291,1.2239,1.2226,1.2246,1.22,1.2209,1.2172,1.2178,1.2175,1.2118,1.2111,1.2059,1.2041,1.2014,1.2043,1.2022,1.2053,1.2045,1.2084,1.2081,1.2226,1.2241,1.2092,1.2093,1.2095,0,1.2401,1.2418,1.2366,1.2364,1.2344,1.2342,1.2334,1.2274,1.2268,1.2233,1.2245,1.2232,1.2219,1.2211,1.2167,1.2152,1.2128,1.218,1.2126,1.214,1.2126,1.2125,1.2124,1.2192,1.2193,1.2195,1.2196,0,1.2538,1.2511,1.2502,1.2484,1.2475,1.2458,1.2437,1.2439,1.2371,1.2368,1.2359,1.2348,1.2328,1.2316,1.2292,1.2269,1.2221,1.2214,1.2221,1.2236,1.2253,1.2242,1.2082,1.2211,1.2209,1.2208,1.2207,1.2207,1.2645,1.2655,1.2619,1.261,1.2587,1.2568,1.2572,1.2535,1.2526,1.2504,1.2469,1.2465,1.2431,1.2394,1.2374,1.2369,1.2341,1.2353,1.2355,1.2358,1.2365,1.2255,1.2364,1.2364,1.2364,1.2363,1.2363,0,1.2777,1.275,1.2742,1.2713,1.2705,1.266,1.2633,1.2629,1.2625,1.2598,1.2585,1.2573,1.256,1.2514,1.2496,1.25,1.2477,1.2497,1.2495,1.249,1.2393,1.2387,1.2515,1.2515,1.2515,1.2515,1.2515,1.2515,1.2845,1.2858,1.2827,1.2828,1.28,1.2794,1.2782,1.2763,1.274,1.2729,1.2718,1.2687,1.2651,1.2629,1.2614,1.2601,1.2596,1.2623,1.2602,1.2512,1.2497,1.2483,1.2477,1.2623,1.2623,1.2699,1.27,1.27]},{"header":{"parameterUnit":"m.s-1","parameterCategory":1,"la1":30.2991,"la2":30.254,"lo1":-89.0895,"lo2":-89.0444,"dy":0.0017,"dx":0.0017,"nx":28,"ny":28,"refTime":"2025-06-17T21:00:00:Z","depth":0,"parameterNumber":3,"parameterNumberName":"V-component_of_WINDS"},"data":[0,0,0,0,0,0,0,0,0,0,0,0,0,0,0,0,0,0,0,0,0,0,0,0,0,0,0,0,0,0,0,0,0,0,0,0,0,0,0,0,0,0,0,0,0,0,0,0,0,0,0,0,0,0,0,0,0,0,5.7137,5.7138,0,5.7222,5.7223,5.7224,5.7186,5.7184,5.7182,5.718,5.726,5.7264,5.7268,0,0,0,0,0,0,0,0,0,0,0,0,0,5.6933,5.6937,5.7137,5.7138,5.7139,5.7222,5.7223,5.7224,5.7186,5.7184,5.7181,5.7179,5.7259,5.7264,5.7269,0,0,0,0,0,0,0,0,0,0,0,0,0,5.702,5.6939,5.7137,5.713,5.7131,5.7221,5.7223,5.7224,5.7187,5.7184,5.7181,5.7178,5.7257,5.7263,5.7269,5.7369,0,0,5.7288,5.729,0,0,0,0,0,0,0,0,5.7015,5.7028,5.713,5.7131,5.7131,5.719,5.718,5.7273,5.7188,5.7165,5.718,5.7176,5.7239,5.7246,5.7269,5.7373,5.7376,5.7288,5.7292,5.7295,5.7296,0,0,0,0,0,0,0,5.7009,5.7024,5.717,5.7132,5.7132,5.712,5.7129,5.7198,5.7218,5.7167,5.7164,5.7175,5.7239,5.7263,5.727,5.7377,5.7288,5.7294,5.7297,5.73,5.7562,5.7566,0,0,0,0,0,0,5.7004,5.7019,5.7167,5.7173,5.7065,5.7126,5.7136,5.7174,5.7217,5.7221,5.7178,5.7173,5.7254,5.7263,5.7273,5.7389,5.7295,5.73,5.7304,5.7559,5.7563,5.7567,0,0,0,0,0,0,5.7,5.7018,5.7164,5.7095,5.7113,5.7133,5.7176,5.7178,5.7202,5.7226,5.7229,5.72,5.7252,5.7265,5.7345,5.7392,5.7303,5.7309,5.7555,5.756,5.7565,5.7625,0,0,0,0,0,0,5.6995,5.7017,5.7057,5.7097,5.7117,5.7237,5.7179,5.7182,5.7214,5.7208,5.7247,5.725,5.7251,5.7336,5.7351,5.7399,5.7313,5.7551,5.7558,5.7563,5.7619,5.7632,5.7642,0,0,0,0,0,5.6987,5.707,5.706,5.7078,5.7168,5.724,5.7251,5.7252,5.7218,5.7256,5.7271,5.7249,5.7385,5.7345,5.7361,5.7411,5.7548,5.7556,5.7563,5.7614,5.7629,5.7642,0,0,0,0,0,0,5.7035,5.7076,5.7064,5.7163,5.7198,5.7234,5.7283,5.7269,5.7313,5.7306,5.7303,5.7312,5.7394,5.7411,5.7365,5.7508,5.7461,5.7472,5.7494,5.7508,5.752,5.7513,5.7319,0,0,0,0,0,5.7057,5.7114,5.7146,5.723,5.7248,5.7263,5.7294,5.7291,5.7327,5.7341,5.7362,5.7396,5.7445,5.7478,5.7526,5.7622,5.7627,5.7664,5.7676,5.7685,5.7694,5.7742,5.7757,5.7591,5.7591,5.7591,0,0,5.7103,5.7132,5.7168,5.724,5.7267,5.7323,5.7276,5.7338,5.7379,5.735,5.7427,5.7443,5.748,5.7568,5.7607,5.7584,5.7741,5.7695,5.7702,5.7706,5.7751,5.7767,5.778,5.7596,5.7595,5.7595,0,0,5.7214,5.7244,5.7315,5.7344,5.7386,5.7394,5.7411,5.7449,5.7459,5.7536,5.7515,5.7562,5.7649,5.7675,5.7699,5.7818,5.7797,5.7833,5.7893,5.794,5.7953,5.7964,5.8003,5.8017,5.7843,5.7843,5.7843,0,5.7265,5.7352,5.7353,5.7417,5.7447,5.7425,5.7495,5.7522,5.7576,5.7596,5.757,5.7677,5.77,5.7792,5.782,5.7842,5.7858,5.7828,5.7951,5.7963,5.7973,5.801,5.8025,5.7846,5.7846,5.7846,5.7845,0,5.741,5.747,5.7522,5.7576,5.7612,5.7679,5.7687,5.7723,5.7717,5.7727,5.7803,5.7831,5.7882,5.7904,5.7898,5.7993,5.7977,5.7952,5.7904,5.7993,5.8027,5.8041,5.7852,5.7851,5.7849,5.7848,0,0,5.7554,5.7607,5.7626,5.7648,5.7692,5.7737,5.78,5.7852,5.788,5.7919,5.7969,5.8042,5.8018,5.8046,5.8042,5.8084,5.8171,5.8052,5.8053,5.807,5.8272,5.8289,5.8306,5.8159,5.8161,5.8164,5.8268,0,5.7665,5.7779,5.7781,5.7884,5.7936,5.7915,5.797,5.8001,5.8012,5.8056,5.8067,5.8117,5.8083,5.8099,5.814,5.8152,5.8211,5.8145,5.8202,5.8204,5.819,5.8324,5.8343,5.844,5.8282,5.8284,5.8286,0,5.7812,5.7854,5.7963,5.7996,5.8018,5.8067,5.8112,5.8156,5.8189,5.8194,5.8224,5.8214,5.8275,5.8227,5.8308,5.8263,5.8287,5.8296,5.8299,5.8302,5.8248,5.8327,5.8471,5.8485,5.8308,5.8306,5.8304,0,5.79,5.7986,5.806,5.8081,5.8122,5.8157,5.8175,5.8206,5.8235,5.8274,5.8292,5.8337,5.8361,5.8394,5.8395,5.8361,5.8476,5.8429,5.8478,5.8478,5.8501,5.8499,5.8648,5.8522,5.8522,5.8521,5.8521,0,5.8023,5.8089,5.81,5.8146,5.8218,5.8218,5.8288,5.8303,5.833,5.8376,5.8361,5.8403,5.8403,5.8446,5.8447,5.8511,5.8523,5.8526,5.8525,5.8526,5.8525,5.8538,5.853,5.8525,5.8524,5.8524,5.8523,0,5.8134,5.8145,5.8224,5.8257,5.8266,5.8317,5.8343,5.8385,5.8394,5.8452,5.8465,5.8478,5.8527,5.8532,5.8589,5.8589,5.8666,5.866,5.8656,5.8653,5.87,5.8695,5.8861,5.8881,5.8745,5.8746,5.8748,0,5.821,5.826,5.8298,5.8328,5.8349,5.8398,5.8428,5.8429,5.846,5.85,5.8536,5.8584,5.8621,5.87,5.8713,5.8755,5.8747,5.8802,5.8753,5.8751,5.8743,5.8739,5.8742,5.8811,5.8812,5.8814,5.8815,0,5.8343,5.8345,5.839,5.8436,5.8472,5.8508,5.8541,5.8566,5.8571,5.8606,5.8656,5.8686,5.8743,5.8789,5.8831,5.8846,5.883,5.883,5.8843,5.8843,5.8837,5.8837,5.8678,5.8826,5.8825,5.8824,5.8823,5.8823,5.8436,5.8478,5.8511,5.856,5.8585,5.8616,5.8656,5.867,5.8712,5.876,5.8758,5.8812,5.884,5.8894,5.8913,5.8953,5.8935,5.8954,5.8958,5.8962,5.8965,5.8833,5.8961,5.8961,5.8961,5.8961,5.896,0,5.8565,5.8584,5.863,5.8677,5.8714,5.8698,5.8734,5.8765,5.8814,5.8843,5.888,5.8936,5.898,5.8996,5.9038,5.9067,5.9061,5.9078,5.9074,5.9077,5.8982,5.8965,5.9082,5.9082,5.9082,5.9082,5.9082,5.9082,5.8636,5.8705,5.871,5.879,5.8809,5.8863,5.8884,5.8911,5.8934,5.8997,5.9034,5.9045,5.9068,5.9111,5.9149,5.9153,5.9167,5.9187,5.9187,5.9097,5.9084,5.9072,5.9056,5.9191,5.9191,5.9278,5.9279,5.9279]}]]